| time (UTC) | temp C | wind direction | speed KPH | gust KPH | rain 1hr cm | rain 24hr cm | rain mn cm | humidity % | barometer mb |
| 20260906230042 | 24 | 61 | 3.2 | 16.1 | 0.00 | 0.18 | 0.03 | 41 | 1019.8 |
| 20260906224541 | 24 | 28 | 0.0 | 9.7 | 0.00 | 0.18 | 0.03 | 42 | 1019.8 |
| 20260906223038 | 23 | 100 | 0.0 | 8.0 | 0.00 | 0.18 | 0.03 | 42 | 1020.1 |
| 20260906221543 | 23 | 80 | 0.0 | 1.6 | 0.00 | 0.18 | 0.03 | 43 | 1020.2 |
| 20260906220110 | 23 | 15 | 0.0 | 4.8 | 0.00 | 0.18 | 0.03 | 43 | 1020.5 |
| 20260906214537 | 24 | 94 | 0.0 | 9.7 | 0.00 | 0.18 | 0.03 | 42 | 1020.9 |
| 20260906213033 | 24 | 67 | 0.0 | 11.3 | 0.00 | 0.18 | 0.03 | 40 | 1021.0 |
| 20260906211537 | 25 | 93 | 0.0 | 12.9 | 0.00 | 0.18 | 0.03 | 39 | 1020.9 |
| 20260906210050 | 25 | 85 | 1.6 | 9.7 | 0.00 | 0.18 | 0.03 | 37 | 1021.1 |
| 20260906204529 | 25 | 140 | 0.0 | 8.0 | 0.00 | 0.18 | 0.03 | 37 | 1021.1 |
| 20260906203033 | 26 | 78 | 1.6 | 16.1 | 0.00 | 0.18 | 0.03 | 33 | 1021.2 |
| 20260906201525 | 25 | 84 | 0.0 | 11.3 | 0.00 | 0.18 | 0.03 | 33 | 1021.5 |
| 20260906200037 | 26 | 61 | 0.0 | 6.4 | 0.00 | 0.18 | 0.03 | 32 | 1021.5 |
| 20260906194524 | 26 | 90 | 0.0 | 14.5 | 0.00 | 0.18 | 0.03 | 31 | 1021.7 |
| 20260906193021 | 26 | 75 | 0.0 | 6.4 | 0.00 | 0.18 | 0.03 | 29 | 1021.7 |
| 20260906191519 | 26 | 124 | 0.0 | 6.4 | 0.00 | 0.18 | 0.03 | 32 | 1022.0 |
| 20260906190015 | 25 | 67 | 0.0 | 9.7 | 0.00 | 0.18 | 0.03 | 32 | 1022.1 |
| 20260906184512 | 25 | 11 | 0.0 | 14.5 | 0.00 | 0.18 | 0.03 | 33 | 1022.3 |
| 20260906183018 | 25 | 89 | 0.0 | 4.8 | 0.00 | 0.18 | 0.03 | 34 | 1022.6 |
| 20260906181505 | 24 | 82 | 0.0 | 12.9 | 0.00 | 0.18 | 0.03 | 35 | 1022.7 |
| 20260906180003 | 24 | 120 | 0.0 | 4.8 | 0.00 | 0.18 | 0.03 | 36 | 1022.9 |
| 20260906174502 | 25 | 92 | 0.0 | 6.4 | 0.00 | 0.18 | 0.03 | 37 | 1023.2 |
| 20260906173100 | 24 | 93 | 0.0 | 9.7 | 0.00 | 0.18 | 0.03 | 38 | 1023.5 |
| 20260906171605 | 24 | 101 | 0.0 | 4.8 | 0.00 | 0.18 | 0.03 | 39 | 1023.8 |
| 20260906170055 | 24 | 70 | 0.0 | 11.3 | 0.00 | 0.18 | 0.03 | 39 | 1024.0 |
| 20260906164555 | 23 | 74 | 1.6 | 9.7 | 0.00 | 0.18 | 0.03 | 42 | 1024.1 |
| 20260906163050 | 23 | 103 | 0.0 | 4.8 | 0.00 | 0.18 | 0.03 | 40 | 1024.0 |
| 20260906161540 | 23 | 77 | 0.0 | 4.8 | 0.00 | 0.18 | 0.03 | 40 | 1024.0 |
| 20260906160047 | 22 | 71 | 0.0 | 4.8 | 0.00 | 0.18 | 0.03 | 41 | 1024.0 |
| 20260906154534 | 21 | 101 | 0.0 | 0.0 | 0.00 | 0.18 | 0.03 | 45 | 1023.9 |
| 20260906153026 | 19 | 65 | 0.0 | 0.0 | 0.00 | 0.18 | 0.03 | 62 | 1024.0 |
| 20260906151522 | 17 | 298 | 0.0 | 0.0 | 0.00 | 0.18 | 0.03 | 68 | 1024.1 |
| 20260906150039 | 15 | 298 | 0.0 | 0.0 | 0.00 | 0.18 | 0.03 | 84 | 1024.5 |
| 20260906144516 | 13 | 298 | 0.0 | 0.0 | 0.00 | 0.18 | 0.03 | 75 | 1024.9 |
| 20260906143020 | 11 | 298 | 0.0 | 0.0 | 0.00 | 0.18 | 0.03 | 78 | 1024.9 |
| 20260906141505 | 10 | 298 | 0.0 | 0.0 | 0.00 | 0.18 | 0.03 | 78 | 1025.0 |
| 20260906140002 | 8 | 298 | 0.0 | 0.0 | 0.00 | 0.18 | 0.03 | 78 | 1025.0 |
| 20260906134501 | 8 | 298 | 0.0 | 1.6 | 0.00 | 0.18 | 0.03 | 79 | 1025.0 |
| 20260906133059 | 7 | 298 | 0.0 | 3.2 | 0.00 | 0.18 | 0.03 | 79 | 1025.0 |
| 20260906131557 | 7 | 298 | 0.0 | 1.6 | 0.00 | 0.18 | 0.03 | 79 | 1024.9 |
| 20260906130058 | 7 | 298 | 0.0 | 0.0 | 0.00 | 0.18 | 0.03 | 79 | 1024.9 |
| 20260906124556 | 7 | 298 | 0.0 | 0.0 | 0.00 | 0.18 | 0.03 | 79 | 1024.7 |
| 20260906123054 | 7 | 298 | 0.0 | 0.0 | 0.00 | 0.18 | 0.03 | 79 | 1024.7 |
| 20260906121553 | 7 | 298 | 0.0 | 1.6 | 0.00 | 0.18 | 0.03 | 79 | 1024.8 |
| 20260906120056 | 7 | 298 | 0.0 | 1.6 | 0.00 | 0.18 | 0.03 | 79 | 1024.8 |
| 20260906114551 | 7 | 298 | 0.0 | 0.0 | 0.00 | 0.18 | 0.03 | 79 | 1024.8 |
| 20260906113055 | 7 | 298 | 0.0 | 0.0 | 0.00 | 0.18 | 0.03 | 79 | 1024.8 |
| 20260906111549 | 7 | 298 | 0.0 | 0.0 | 0.00 | 0.18 | 0.03 | 79 | 1024.7 |
| 20260906110046 | 8 | 298 | 0.0 | 0.0 | 0.00 | 0.18 | 0.03 | 79 | 1024.5 |
| 20260906104557 | 8 | 298 | 0.0 | 1.6 | 0.00 | 0.18 | 0.03 | 79 | 1024.3 |
| 20260906103043 | 8 | 298 | 0.0 | 0.0 | 0.00 | 0.18 | 0.03 | 79 | 1024.5 |
| 20260906101543 | 8 | 298 | 0.0 | 3.2 | 0.00 | 0.18 | 0.03 | 79 | 1024.4 |
| 20260906100046 | 8 | 298 | 0.0 | 0.0 | 0.00 | 0.18 | 0.03 | 79 | 1024.4 |
| 20260906094606 | 8 | 298 | 0.0 | 0.0 | 0.00 | 0.18 | 0.03 | 79 | 1024.5 |
| 20260906093040 | 8 | 298 | 0.0 | 0.0 | 0.00 | 0.18 | 0.03 | 79 | 1024.8 |
| 20260906091543 | 8 | 298 | 0.0 | 1.6 | 0.00 | 0.18 | 0.03 | 79 | 1024.8 |
| 20260906090038 | 8 | 298 | 0.0 | 1.6 | 0.00 | 0.18 | 0.03 | 79 | 1024.7 |
| 20260906084540 | 8 | 298 | 0.0 | 3.2 | 0.00 | 0.18 | 0.03 | 79 | 1024.6 |
| 20260906083037 | 8 | 294 | 0.0 | 3.2 | 0.00 | 0.18 | 0.03 | 79 | 1024.7 |
| 20260906081544 | 8 | 294 | 0.0 | 3.2 | 0.00 | 0.18 | 0.03 | 79 | 1024.8 |
| 20260906080033 | 9 | 168 | 0.0 | 3.2 | 0.00 | 0.18 | 0.03 | 79 | 1024.9 |
| 20260906074532 | 9 | 168 | 0.0 | 3.2 | 0.00 | 0.18 | 0.03 | 79 | 1025.0 |
| 20260906073030 | 9 | 168 | 0.0 | 1.6 | 0.03 | 0.18 | 0.03 | 79 | 1025.0 |
| 20260906071529 | 9 | 168 | 0.0 | 1.6 | 0.03 | 0.18 | 0.03 | 79 | 1025.0 |
| 20260906070028 | 10 | 168 | 0.0 | 1.6 | 0.03 | 0.18 | 0.03 | 79 | 1024.9 |
| 20260906064526 | 10 | 168 | 0.0 | 4.8 | 0.03 | 0.18 | 0.03 | 79 | 1024.9 |
| 20260906063030 | 10 | 146 | 0.0 | 3.2 | 0.00 | 0.15 | 0.00 | 79 | 1024.8 |
| 20260906061533 | 10 | 146 | 0.0 | 3.2 | 0.00 | 0.15 | 0.00 | 80 | 1025.1 |
| 20260906060019 | 10 | 89 | 0.0 | 3.2 | 0.00 | 0.15 | 0.00 | 81 | 1024.9 |
| 20260906054519 | 11 | 89 | 0.0 | 1.6 | 0.03 | 0.15 | 0.15 | 81 | 1025.1 |
| 20260906053019 | 11 | 89 | 0.0 | 3.2 | 0.03 | 0.15 | 0.15 | 82 | 1025.2 |
| 20260906051517 | 11 | 89 | 0.0 | 1.6 | 0.05 | 0.15 | 0.15 | 81 | 1025.3 |
| 20260906050020 | 12 | 89 | 0.0 | 3.2 | 0.10 | 0.15 | 0.15 | 81 | 1025.2 |
| 20260906044519 | 12 | 89 | 0.0 | 0.0 | 0.13 | 0.13 | 0.13 | 82 | 1025.2 |
| 20260906043016 | 12 | 89 | 0.0 | 4.8 | 0.13 | 0.13 | 0.13 | 83 | 1025.4 |
| 20260906041516 | 13 | 262 | 0.0 | 3.2 | 0.10 | 0.10 | 0.10 | 83 | 1025.5 |
| 20260906040015 | 15 | 293 | 1.6 | 8.0 | 0.05 | 0.05 | 0.05 | 77 | 1025.6 |
| 20260906034513 | 16 | 314 | 4.8 | 8.0 | 0.00 | 0.00 | 0.00 | 56 | 1025.4 |
| 20260906033010 | 15 | 192 | 0.0 | 0.0 | 0.00 | 0.00 | 0.00 | 54 | 1024.6 |
| 20260906031514 | 15 | 192 | 0.0 | 0.0 | 0.00 | 0.00 | 0.00 | 54 | 1023.9 |
| 20260906030010 | 15 | 192 | 0.0 | 0.0 | 0.00 | 0.00 | 0.00 | 51 | 1023.7 |
| 20260906024509 | 15 | 192 | 0.0 | 0.0 | 0.00 | 0.00 | 0.00 | 51 | 1023.5 |
| 20260906023014 | 15 | 192 | 0.0 | 0.0 | 0.00 | 0.00 | 0.00 | 51 | 1023.4 |
| 20260906021510 | 16 | 192 | 0.0 | 0.0 | 0.00 | 0.00 | 0.00 | 47 | 1023.4 |
| 20260906020008 | 17 | 192 | 0.0 | 0.0 | 0.00 | 0.00 | 0.00 | 46 | 1023.0 |
| 20260906014509 | 17 | 192 | 0.0 | 0.0 | 0.00 | 0.00 | 0.00 | 43 | 1023.1 |
| 20260906013007 | 19 | 192 | 0.0 | 0.0 | 0.00 | 0.00 | 0.00 | 41 | 1022.9 |
| 20260906011512 | 20 | 192 | 0.0 | 0.0 | 0.00 | 0.00 | 0.00 | 38 | 1022.8 |
| 20260906010008 | 21 | 192 | 0.0 | 0.0 | 0.00 | 0.00 | 0.00 | 35 | 1022.6 |
| 20260906004506 | 21 | 278 | 0.0 | 3.2 | 0.00 | 0.00 | 0.00 | 35 | 1022.5 |
| 20260906003005 | 22 | 225 | 1.6 | 4.8 | 0.00 | 0.00 | 0.00 | 34 | 1022.4 |
| 20260906001505 | 22 | 210 | 1.6 | 8.0 | 0.00 | 0.00 | 0.00 | 34 | 1022.3 |
| 20260906000005 | 22 | 113 | 0.0 | 6.4 | 0.00 | 0.00 | 0.00 | 34 | 1022.3 |
| 20260905234508 | 23 | 109 | 0.0 | 6.4 | 0.00 | 0.00 | 0.00 | 34 | 1022.2 |
| 20260905233003 | 23 | 100 | 3.2 | 11.3 | 0.00 | 0.00 | 0.00 | 31 | 1022.1 |
| 20260905231506 | 23 | 79 | 1.6 | 9.7 | 0.00 | 0.00 | 0.00 | 31 | 1022.1 |